Time,TemperatureF,DewpointF,PressureIn,WindDirection,WindDirectionDegrees,WindSpeedMPH,WindSpeedGustMPH,Humidity,HourlyPrecipIn,Conditions,Clouds,dailyrainin,SolarRadiationWatts/m^2,SoftwareType,DateUTC
2013-03-06 00:11:00,38.0,37.0,-100.00,North,7,1.0,3.0,94,-99.99,,,-99.99,0.000000,,2013-03-06 08:11:00,
2013-03-06 01:12:00,38.0,37.0,-100.00,NNW,330,0.0,2.0,95,-99.99,,,0.00,0.000000,,2013-03-06 09:12:00,
2013-03-06 02:11:00,38.0,37.0,-100.00,NE,34,1.0,3.0,94,-99.99,,,0.00,0.000000,,2013-03-06 10:11:00,
2013-03-06 03:11:00,38.0,37.0,-100.00,WNW,290,0.0,1.0,94,-99.99,,,0.00,0.000000,,2013-03-06 11:11:00,
2013-03-06 04:11:00,38.0,37.0,-100.00,East,92,1.0,3.0,95,-99.99,,,0.00,0.000000,,2013-03-06 12:11:00,
2013-03-06 05:11:00,38.0,37.0,-100.00,NNE,19,1.0,3.0,96,-99.99,,,0.00,0.000000,,2013-03-06 13:11:00,
2013-03-06 06:11:00,37.0,36.0,-100.00,NNE,21,2.0,4.0,94,-99.99,,,0.01,0.000000,,2013-03-06 14:11:00,
2013-03-06 07:11:00,37.0,36.0,-100.00,North,11,1.0,4.0,97,-99.99,,,0.01,0.000000,,2013-03-06 15:11:00,
2013-03-06 08:11:00,36.0,35.0,-100.00,NW,313,1.0,3.0,97,-99.99,,,0.01,6.280000,,2013-03-06 16:11:00,
2013-03-06 09:11:00,36.0,35.0,-100.00,NNW,345,0.0,1.0,97,-99.99,,,0.01,15.810000,,2013-03-06 17:11:00,
2013-03-06 12:11:00,35.0,34.0,-100.00,SSW,211,3.0,4.0,97,-99.99,,,0.02,112.269997,,2013-03-06 20:11:00,
2013-03-06 13:11:00,37.0,35.0,-100.00,SSE,147,2.0,4.0,94,-99.99,,,0.02,189.210007,,2013-03-06 21:11:00,
2013-03-06 14:11:00,38.0,36.0,-100.00,SE,132,1.0,2.0,92,-99.99,,,0.02,122.379997,,2013-03-06 22:11:00,
2013-03-06 15:11:00,40.0,37.0,-100.00,NW,313,3.0,9.0,90,-99.99,,,0.02,157.009995,,2013-03-06 23:11:00,
2013-03-06 16:11:00,41.0,38.0,-100.00,SSW,197,2.0,7.0,89,-99.99,,,0.02,117.610001,,2013-03-07 00:11:00,
2013-03-06 17:11:00,41.0,37.0,-100.00,NW,319,2.0,8.0,86,-99.99,,,0.02,78.680000,,2013-03-07 01:11:00,
2013-03-06 18:11:00,41.0,38.0,-100.00,SW,234,2.0,5.0,86,-99.99,,,0.02,29.750000,,2013-03-07 02:11:00,
2013-03-06 19:11:00,40.0,38.0,-100.00,NNE,13,0.0,1.0,93,-99.99,,,0.02,0.580000,,2013-03-07 03:11:00,
2013-03-06 20:11:00,40.0,38.0,-100.00,South,173,1.0,3.0,92,-99.99,,,0.02,0.000000,,2013-03-07 04:11:00,
2013-03-06 21:12:00,40.0,38.0,-100.00,SE,140,2.0,4.0,95,-99.99,,,0.02,0.000000,,2013-03-07 05:12:00,
2013-03-06 22:11:00,40.0,38.0,-100.00,SE,143,2.0,4.0,95,-99.99,,,0.02,0.000000,,2013-03-07 06:11:00,
2013-03-06 23:11:00,40.0,38.0,-100.00,SSW,193,2.0,4.0,92,-99.99,,,0.02,0.000000,,2013-03-07 07:11:00,